#timestamp,LO_Frequency,Hit,StdDev 
1527606015.4,286047001.1,N
1527606035.2,286046998.5,N
1527606055.1,286047000.9,N
1527606056.0,286047000.9,N
1527606075.8,286047001.0,N
1527606095.7,286047001.0,N
1527606115.5,286047001.1,N
1527606135.3,286047001.1,N
1527606155.2,286047001.1,N
1527606175.0,286046999.3,N
1527606175.9,286046999.3,N
1527606195.8,286046998.8,N
1527606215.6,286046999.3,N
1527606235.4,286046999.5,N
1527606255.3,286046999.2,N
1527606275.1,286046997.1,N
1527606295.9,286046997.3,N
1527606315.7,286046997.7,N
1527606335.5,286046997.1,N
1527606355.4,286046997.4,N
1527606375.2,286046996.7,N
1527606395.1,286046998.4,N
1527606396.0,286046998.4,N
1527606415.8,286046999.4,N
1527606435.6,286046999.5,N
1527606455.5,286046999.0,N
1527606475.3,286046998.5,N
1527606495.1,286046998.2,N
1527606515.9,286047000.6,N
1527606535.7,286046998.1,N
1527606555.6,286046998.2,N
1527606575.4,286046998.9,N
1527606595.2,286046998.9,N
1527606615.1,286046998.8,N
1527606616.0,286046998.8,N
1527606635.8,286046999.2,N
1527606655.6,286047000.7,N
1527606675.5,286047000.5,N
1527606695.3,286047000.4,N
1527606715.2,286046998.1,N
1527606735.9,286047000.2,N
1527606755.7,286047002.8,N
1527606775.6,286047002.5,N
1527606795.4,286047001.3,N
1527606815.2,286047002.6,N
1527606835.1,286047004.3,N
1527606836.0,286047004.3,N
1527606855.8,286047000.2,N
1527606875.7,286047000.6,N
1527606895.5,286047001.0,N
1527606915.3,286047001.1,N
1527606935.2,286047000.7,N
1527606955.0,286046998.2,N
1527606955.9,286046998.2,N
1527606975.7,286046998.2,N
1527606995.6,286046998.5,N
1527607015.4,286046998.4,N
1527607035.3,286046999.6,N
1527607055.1,286046997.0,N
1527607056.0,286046997.0,N
1527607075.8,286046998.8,N
1527607095.7,286046999.3,N
1527607115.5,286046996.5,N
1527607135.4,286046997.7,N
1527607155.2,286046997.9,N
1527607175.0,286046997.4,N
1527607175.9,286046997.4,N
1527607195.8,286046998.0,N
1527607215.6,286046997.6,N
1527607235.5,286046995.6,N
1527607255.3,286046996.1,N
1527607275.1,286046997.9,N
1527607295.9,286046997.9,N
1527607315.7,286046997.2,N
1527607335.5,286046997.1,N
1527607355.4,286046997.3,N
1527607375.2,286046997.3,N
1527607395.1,286046997.5,N
1527607396.0,286046997.5,N
1527607415.8,286046997.3,N
1527607435.6,286046997.3,N
1527607455.5,286046997.3,N
1527607475.3,286046997.4,Y
1527607495.1,286047001.2,P
1527607515.9,286047000.8,N
1527607535.7,286046998.7,N
1527607555.6,286046998.6,N
1527607575.4,286046998.5,N
1527607595.2,286047001.1,N
1527607615.1,286047001.2,N
1527607616.0,286047001.2,N
1527607635.8,286046998.9,N
1527607655.7,286046998.4,N
1527607675.5,286046998.8,N
1527607695.3,286047000.1,N
1527607715.2,286047000.2,N
1527607735.9,286047002.3,N
1527607755.7,286047005.2,Y
1527607775.6,286047013.7,P
1527607795.4,286047013.9,N
1527607815.3,286047012.1,N
1527607835.1,286047020.4,Y
1527607836.0,286047020.4,P
1527607855.8,286047009.2,N
1527607875.7,286047003.2,N
1527607895.5,286047002.6,N
1527607915.3,286046999.8,N
1527607935.2,286046996.8,N
1527607955.0,286046997.6,N
1527607955.9,286046997.6,N
1527607975.8,286046996.2,N
1527607995.6,286046996.0,N
1527608015.4,286046994.8,N
1527608035.3,286046994.8,N
1527608055.1,286046990.4,N
1527608075.9,286046990.6,N
1527608095.7,286046993.1,N
1527608115.5,286046990.2,N
1527608135.4,286046991.1,N
1527608155.2,286046990.9,N
1527608175.0,286046988.9,N
1527608175.9,286046988.9,N
1527608195.8,286046988.7,N
1527608215.6,286046988.8,N
1527608235.5,286046989.6,N
1527608255.3,286046989.9,N
1527608275.1,286046987.7,N
1527608295.9,286046987.8,N
1527608315.7,286046987.9,N
1527608335.5,286046987.5,N
1527608355.4,286046987.2,N
1527608375.2,286046989.1,N
1527608395.1,286046989.4,N
1527608396.0,286046989.4,N
1527608415.8,286046989.8,N
1527608435.6,286046989.7,N
1527608455.5,286046987.3,Y
1527608475.3,286046995.0,P
1527608495.1,286046995.2,N
1527608515.9,286046995.5,N
1527608535.7,286046995.6,N
1527608555.6,286046995.4,N
1527608575.4,286046996.2,N
1527608595.2,286046995.2,Y
1527608615.1,286047002.4,P
1527608616.0,286047002.4,N
1527608635.8,286047002.4,N
1527608655.7,286047001.5,N
1527608675.5,286047004.0,N
1527608695.3,286047004.0,N
1527608715.2,286047004.0,N
1527608735.0,286047004.0,N
1527608735.9,286047004.0,N
1527608755.8,286047001.8,N
1527608775.6,286047000.0,N
1527608795.4,286047002.7,N
1527608815.3,286047001.5,N
1527608835.1,286047004.3,N
1527608855.8,286047004.1,N
1527608875.7,286047004.0,N
1527608895.5,286047001.8,N
1527608915.4,286047001.8,N
1527608935.2,286047002.2,N
1527608955.0,286047000.2,N
1527608955.9,286047000.2,N
1527608975.8,286047001.0,N
1527608995.6,286047000.0,N
1527609015.4,286047001.1,N
1527609035.3,286047000.4,N
1527609055.1,286047000.5,N
1527609075.9,286046999.9,N
1527609095.7,286046999.7,N
1527609115.5,286047000.3,N
1527609135.4,286047001.0,N
1527609155.2,286047000.2,N
1527609175.1,286047000.5,N
1527609176.0,286047000.5,N
1527609195.8,286047000.3,N
1527609215.6,286047000.0,N
1527609235.5,286047000.0,N
1527609255.3,286047002.4,N
1527609275.2,286047002.8,N
1527609295.9,286047002.3,N
1527609315.7,286047000.2,N
1527609335.6,286047001.5,N
1527609355.4,286047002.2,N
1527609375.3,286047002.2,N
1527609395.1,286047002.8,N
1527609396.0,286047002.8,N
1527609415.8,286047002.2,N
1527609435.7,286047001.6,N
1527609455.5,286047002.5,N
1527609475.4,286047002.6,N
1527609495.2,286046999.8,N
1527609515.0,286047000.4,N
1527609515.9,286047000.4,N
1527609535.8,286046999.9,N
1527609555.6,286047000.4,N
1527609575.4,286047000.6,N
1527609595.3,286047001.2,N
